Showing default

HULIANWANG DIGUI-18, 62978

Orbit data source: Space-Track

HULIANWANG DIGUI-18, 62978 is a payload satellite owned by Zhongguo Xingwang (CN) in LEO that was launched on Tue, 11 Feb 2025 UTC via a CHANG ZHENG 8A launch vehicle from the Wenchang Satellite Launch Center (WSC). Payload-class satellites include a variety of spacecraft equipped with specific instruments for various scientific and technological missions. These include communications satellites like Starlink; space stations such as the ISS; scientific satellites like the Hubble; Earth observation satellites from companies like Planet Labs, Umbra, and HawkEye 360; GPS; miniature CubeSats for education and research; and military/defense satellites.

Loading next visibility...
Identifier
62978, 2025-030H
Orbit
LEO
Country
Flag of CNCN / PRC
Related business
Manufacturer
CAST
Mission
Operational Civil Communications
Bus & Motor
XINGWANG C, Unknown motor
Mass
~700 kg wet, ~700 kg dry
Launch date (UTC)
2025-02-11 (1 year ago)
Launch vehicle
CHANG ZHENG 8A
Launch site
Wenchang Satellite Launch Center (WSC)
Object type
Payload
Rocket body
Debris
Shape & HBR
Box + 2 Pan, 2.1 m
Radar Cross Section
5.935 m², Large (>1 m²)

Expand to show TLE details & history
Last TLE update: 10 hours ago

TLE from 10 hours ago
0 HULIANWANG DIGUI-18
1 62978U 25030H   26037.21444929 -.00000072  00000-0  11315-3 0  9999
2 62978  50.0087 345.2464 0000470  91.1732 268.9194 13.29335816 48446
Epoch: 2026-02-06T05:08Z
TLE epoch observation values (Epoch: 2026-02-06T05:08:48.418Z)
Latitude
-0.00003°
Longitude
131.6891°
Altitude
1,149.783 km
Speed
7.279 km/s
True Right ascension
23h 00m 59s
True Declination
0° 00' 00"
Sunlit
Object was in daylight at epoch
Visualization orbit readout
Latitude
Unknown
Longitude
Unknown
Altitude
Unknown
Speed
Unknown
Apparent Right ascension
Unknown
Apparent Declination
Unknown
Sunlit
N/A
Visualization observer readout
Local Sidereal Time
17:44:47
Azimuth
Unknown
Elevation
Unknown
Doppler factor
Unknown
Orbital elements
Apogee altitude
1,150.327 km
Perigee altitude
1,149.62 km
Semi-major axis
7,528.111 km
Eccentricity
0.00005
Inclination
50.0087°
RAAN
345.2464°
Arg. of periapsis
91.1732°
True anomaly
268.91402°
Mean anomaly
268.9194°
Eccentric anomaly
268.91671°
Mean motion
3.32288 °/min
Orbital period
108.34 mins
BSTAR
0.00011315
Loading maneuver chart data...
Computing Atmospheric mass density...
Loading historical data...
Loading historical data...
Loading historical data...
Loading historical data...
Loading historical data...
Loading historical data...
Loading historical data...

Documentation

Showing up to 5 results
|